Weather History for Mackinac Island, MI

Change the Weather History Date:

Tuesday, November 6, 2012

  Actual Average Record
Temperature  
Mean Temperature 34 °F -  
Max Temperature 38 °F 43 °F 71 °F (2008)
Min Temperature 31 °F 33 °F 17 °F (1991)
Degree Days  
Heating Degree Days 30    
Moisture  
Dew Point 23 °F    
Average Humidity 62    
Maximum Humidity 72    
Minimum Humidity 55    
Precipitation  
Precipitation 0.00 in - - ()
Sea Level Pressure  
Sea Level Pressure 30.03 in    
Wind  
Wind Speed 7 mph (SSE)    
Max Wind Speed 12 mph    
Max Gust Speed 18 mph    
Visibility 10 miles    
Events      
Averages and records for this station are not official NWS values.
T = Trace of Precipitation, MM = Missing Value Source: NWS Daily Summary

Daily Weather History Graph

Daily Weather History Graph

Search for Another Location

Airport:

Trip Planner

Search our weather history database for the weather conditions in past years. The results will help you decide how hot, cold, wet, or windy it might be!

Date:

Astronomy

Nov. 06, 2012 Rise Set
Actual Time 7:26 AM EST 5:17 PM EST
Civil Twilight 6:54 AM EST 5:48 PM EST
Nautical Twilight 6:19 AM EST 6:24 PM EST
Astronomical Twilight 5:44 AM EST 6:59 PM EST
Moon 11:59 PM EST (11/6) 1:15 PM EST (11/6)
Length of Visible Light 10h 53m
Length of Day
9h 50m
Waning Gibbous, 53% of the Moon is Illuminated
Nov 6
Waning Gibbous
Nov 6
Last Quarter
Nov 13
New
Nov 20
First Quarter
Nov 28
Full

Hourly Weather History & Observations

Time (EST) Temp. Windchill Dew Point Humidity Pressure Visibility Wind Dir Wind Speed Gust Speed Precip Events Conditions
12:13 AM 32.0 °F 26.4 °F 18.3 °F 57% 30.14 in 10.0 mi South 5.8 mph - N/A   Overcast
12:33 AM 32.0 °F 25.6 °F 19.9 °F 61% 30.14 in 10.0 mi South 6.9 mph - N/A   Overcast
12:53 AM 32.0 °F 24.2 °F 19.8 °F 61% 30.14 in 10.0 mi South 9.2 mph - N/A   Overcast
1:13 AM 32.0 °F 25.6 °F 19.6 °F 60% 30.13 in 10.0 mi South 6.9 mph - N/A   Overcast
1:33 AM 32.0 °F 24.2 °F 20.3 °F 62% 30.12 in 10.0 mi South 9.2 mph - N/A   Overcast
1:53 AM 32.0 °F 24.8 °F 20.5 °F 63% 30.12 in 10.0 mi South 8.1 mph - N/A   Overcast
2:13 AM 32.0 °F 26.4 °F 20.7 °F 63% 30.11 in 10.0 mi South 5.8 mph - N/A   Overcast
2:34 AM 31.8 °F 25.4 °F 20.3 °F 62% 30.11 in 10.0 mi South 6.9 mph - N/A   Overcast
2:53 AM 32.0 °F 24.8 °F 19.8 °F 61% 30.11 in 10.0 mi South 8.1 mph - N/A   Overcast
3:13 AM 31.8 °F 25.4 °F 20.1 °F 62% 30.10 in 10.0 mi SSE 6.9 mph - N/A   Overcast
3:34 AM 32.0 °F 26.4 °F 19.8 °F 61% 30.08 in 10.0 mi SSE 5.8 mph - N/A   Overcast
3:53 AM 31.8 °F 24.6 °F 19.8 °F 61% 30.08 in 10.0 mi SSE 8.1 mph - N/A   Overcast
4:13 AM 32.0 °F 24.8 °F 19.8 °F 61% 30.08 in 10.0 mi SSE 8.1 mph - N/A   Overcast
4:34 AM 32.0 °F 27.5 °F 20.8 °F 63% 30.07 in 10.0 mi SSE 4.6 mph - N/A   Overcast
4:53 AM 32.0 °F 26.4 °F 21.6 °F 65% 30.07 in 10.0 mi SSE 5.8 mph - N/A   Overcast
5:13 AM 32.0 °F 25.6 °F 22.1 °F 67% 30.06 in 10.0 mi SE 6.9 mph - N/A   Overcast
5:34 AM 32.0 °F 26.4 °F 23.0 °F 69% 30.06 in 10.0 mi SSE 5.8 mph - N/A   Overcast
5:53 AM 32.2 °F 27.7 °F 23.2 °F 69% 30.05 in 10.0 mi SSE 4.6 mph - N/A   Overcast
6:13 AM 32.2 °F 25.0 °F 23.4 °F 70% 30.04 in 10.0 mi SSE 8.1 mph - N/A   Overcast
6:53 AM 32.5 °F 27.1 °F 24.3 °F 72% 30.03 in 10.0 mi SSE 5.8 mph - N/A   Overcast
7:13 AM 32.9 °F 25.3 °F 23.9 °F 69% 30.03 in 10.0 mi South 9.2 mph - N/A   Overcast
7:34 AM 32.9 °F 25.9 °F 23.5 °F 68% 30.03 in 10.0 mi SSE 8.1 mph - N/A   Overcast
7:53 AM 32.9 °F 27.5 °F 23.7 °F 69% 30.03 in 10.0 mi South 5.8 mph - N/A   Overcast
8:13 AM 33.1 °F 25.5 °F 23.9 °F 69% 30.03 in 10.0 mi SSE 9.2 mph - N/A   Overcast
8:34 AM 33.3 °F 25.7 °F 24.1 °F 69% 30.04 in 10.0 mi SSE 9.2 mph - N/A   Overcast
8:53 AM 33.4 °F 27.3 °F 24.4 °F 70% 30.04 in 10.0 mi South 6.9 mph - N/A   Overcast
9:13 AM 33.4 °F 29.1 °F 24.6 °F 70% 30.04 in 10.0 mi SSE 4.6 mph - N/A   Overcast
9:34 AM 33.8 °F 25.8 °F 25.0 °F 70% 30.03 in 10.0 mi SSE 10.4 mph - N/A   Overcast
9:53 AM 33.8 °F 26.4 °F 24.8 °F 70% 30.04 in 10.0 mi South 9.2 mph - N/A   Overcast
10:13 AM 33.3 °F 26.4 °F 23.9 °F 69% 30.03 in 10.0 mi South 8.1 mph - N/A   Overcast
10:33 AM 33.4 °F 25.4 °F 24.3 °F 69% 30.03 in 10.0 mi South 10.4 mph - N/A   Overcast
10:53 AM 33.8 °F 28.6 °F 24.3 °F 68% 30.03 in 10.0 mi South 5.8 mph - N/A   Overcast
11:14 AM 34.3 °F 29.2 °F 24.8 °F 68% 30.02 in 10.0 mi SSE 5.8 mph - N/A   Overcast
11:33 AM 34.7 °F 28.1 °F 24.6 °F 67% 30.02 in 10.0 mi South 8.1 mph - N/A   Overcast
11:53 AM 34.9 °F 27.7 °F 24.4 °F 66% 30.02 in 10.0 mi South 9.2 mph 17.3 mph N/A   Overcast
12:13 PM 35.1 °F 26.9 °F 23.9 °F 64% 30.01 in 10.0 mi South 11.5 mph 17.3 mph N/A   Overcast
12:33 PM 35.6 °F 29.2 °F 24.4 °F 64% 30.00 in 10.0 mi South 8.1 mph 16.1 mph N/A   Overcast
12:54 PM 36.1 °F 28.2 °F 23.9 °F 61% 30.00 in 10.0 mi South 11.5 mph 18.4 mph N/A   Overcast
1:33 PM 36.9 °F 32.2 °F 23.4 °F 58% 29.98 in 10.0 mi South 5.8 mph - N/A   Overcast
1:53 PM 37.4 °F 32.8 °F 23.4 °F 57% 29.98 in 10.0 mi SSE 5.8 mph - N/A   Overcast
2:13 PM 37.6 °F 32.3 °F 23.4 °F 57% 29.97 in 10.0 mi SE 6.9 mph - N/A   Overcast
2:33 PM 37.8 °F 34.2 °F 23.5 °F 57% 29.97 in 10.0 mi SSE 4.6 mph - N/A   Overcast
2:53 PM 38.3 °F 32.5 °F 23.4 °F 55% 29.97 in 10.0 mi SSE 8.1 mph - N/A   Overcast
3:13 PM 37.9 °F 34.4 °F 23.2 °F 55% 29.97 in 10.0 mi SE 4.6 mph - N/A   Overcast
3:33 PM 38.3 °F 33.2 °F 23.4 °F 55% 29.97 in 10.0 mi SE 6.9 mph - N/A   Overcast
3:53 PM 38.3 °F 32.5 °F 23.7 °F 56% 29.97 in 10.0 mi SSE 8.1 mph - N/A   Overcast
4:13 PM 37.9 °F 32.1 °F 23.5 °F 56% 29.97 in 10.0 mi SSE 8.1 mph - N/A   Overcast
4:34 PM 37.9 °F 34.4 °F 23.4 °F 56% 29.97 in 10.0 mi SE 4.6 mph - N/A   Overcast
5:13 PM 37.4 °F 32.8 °F 23.5 °F 57% 29.98 in 10.0 mi ESE 5.8 mph - N/A   Overcast
5:34 PM 37.4 °F 32.8 °F 23.5 °F 57% 29.98 in 10.0 mi SE 5.8 mph - N/A   Overcast
5:53 PM 37.6 °F 32.3 °F 23.5 °F 57% 29.98 in 10.0 mi SE 6.9 mph - N/A   Overcast
6:13 PM 37.6 °F 33.1 °F 23.7 °F 57% 29.98 in 10.0 mi SE 5.8 mph - N/A   Overcast
6:33 PM 37.4 °F 33.8 °F 23.5 °F 57% 29.99 in 10.0 mi SE 4.6 mph - N/A   Overcast
6:53 PM 37.4 °F 32.1 °F 23.5 °F 57% 29.99 in 10.0 mi ESE 6.9 mph 16.1 mph N/A   Overcast
7:13 PM 37.4 °F 31.4 °F 23.5 °F 57% 29.99 in 10.0 mi SE 8.1 mph - N/A   Overcast
7:33 PM 37.4 °F 32.1 °F 23.7 °F 58% 30.00 in 10.0 mi SE 6.9 mph - N/A   Overcast
7:53 PM 37.4 °F 31.4 °F 24.1 °F 59% 30.00 in 10.0 mi SE 8.1 mph - N/A   Overcast
8:33 PM 37.4 °F 32.1 °F 24.6 °F 60% 30.00 in 10.0 mi SE 6.9 mph - N/A   Overcast
8:53 PM 37.4 °F 32.1 °F 24.8 °F 60% 30.00 in 10.0 mi SE 6.9 mph - N/A   Overcast
9:14 PM 37.4 °F 34.9 °F 25.0 °F 61% 30.00 in 10.0 mi SE 3.5 mph - N/A   Overcast
9:33 PM 37.4 °F 32.8 °F 24.8 °F 60% 30.01 in 10.0 mi SE 5.8 mph - N/A   Overcast
9:53 PM 37.4 °F 34.9 °F 25.0 °F 61% 30.01 in 10.0 mi SE 3.5 mph - N/A   Overcast
10:14 PM 37.0 °F 33.3 °F 25.5 °F 63% 30.01 in 10.0 mi SSE 4.6 mph - N/A   Overcast
10:33 PM 37.0 °F 31.0 °F 25.5 °F 63% 30.01 in 10.0 mi SE 8.1 mph - N/A   Overcast
10:53 PM 37.4 °F 33.8 °F 25.5 °F 62% 30.01 in 10.0 mi SSE 4.6 mph - N/A   Overcast
11:14 PM 37.0 °F 31.6 °F 25.7 °F 64% 30.01 in 10.0 mi SSE 6.9 mph - N/A   Overcast
11:33 PM 37.0 °F 33.3 °F 25.5 °F 63% 30.02 in 10.0 mi SE 4.6 mph - N/A   Overcast
11:53 PM 37.0 °F 33.3 °F 25.3 °F 63% 30.02 in 10.0 mi SE 4.6 mph - N/A   Overcast